When you browse on this site, cookies collect data to enhance your experience and personalize the content and advertising you see.
Visit our Privacy Policy to learn more. By continuing to use the site, you agree to this use of cookies and data.
  • In Hungary
  • List of Countries
  • For 7 days
  • Water Temperature
  • Satellite Maps
  • Weather Map
  • News
  • Weather Widgets
  • user-avatar
    Login

    Hourly Weather Zabolotne

    Today, 17 November, Saturday

    Time Temperature Precipitation Wind Pressure Humidity
    00:00 +3°C° 0 mm 2 mps 756 mmHg 67%
    01:00 +4°C° 0 mm 1 mps 757 mmHg 69%
    02:00 +1°C° 0 mm 2 mps 757 mmHg 59%
    03:00 +1°C° 0 mm 2 mps 756 mmHg 74%
    04:00 +3°C° 0 mm 1 mps 756 mmHg 68%
    05:00 +3°C° 0 mm 1 mps 756 mmHg 67%
    06:00 +1°C° 0 mm 2 mps 756 mmHg 72%
    07:00 +1°C° 0 mm 2 mps 756 mmHg 72%
    08:00 +3°C° 0 mm 1 mps 756 mmHg 68%
    09:00 +3°C° 0 mm 1 mps 756 mmHg 70%
    10:00 +3°C° 0 mm 0 mps 756 mmHg 77%
    11:00 +5°C° 0 mm 1 mps 756 mmHg 73%
    12:00 +6°C° 0 mm 1 mps 756 mmHg 71%
    13:00 +6°C° 0 mm 2 mps 756 mmHg 73%
    14:00 +7°C° 0 mm 2 mps 756 mmHg 72%
    15:00 +7°C° 0 mm 2 mps 756 mmHg 74%
    16:00 +7°C° 0 mm 1 mps 756 mmHg 78%
    17:00 +7°C° 0 mm 1 mps 756 mmHg 85%
    18:00 +5°C° 0 mm 0 mps 755 mmHg 85%
    19:00 +6°C° 0 mm 1 mps 755 mmHg 85%
    20:00 +4°C° 0 mm 2 mps 755 mmHg 83%
    21:00 +4°C° 0 mm 2 mps 755 mmHg 78%
    22:00 +3°C° 0 mm 2 mps 755 mmHg 76%
    23:00 +3°C° 0 mm 2 mps 755 mmHg 74%

    Tomorrow, 18 November, Sunday

    Time Temperature Precipitation Wind Pressure Humidity
    00:00 +4°C° 0 mm 1 mps 755 mmHg 73%
    01:00 +3°C° 0 mm 2 mps 755 mmHg 72%
    02:00 +3°C° 0 mm 2 mps 755 mmHg 72%
    03:00 +3°C° 0 mm 2 mps 755 mmHg 71%
    04:00 +4°C° 0 mm 1 mps 754 mmHg 71%
    05:00 +3°C° 0 mm 1 mps 754 mmHg 72%
    06:00 +2°C° 0 mm 0 mps 753 mmHg 72%
    07:00 +2°C° 0 mm 0 mps 753 mmHg 73%
    08:00 +2°C° 0 mm 0 mps 753 mmHg 75%
    09:00 +2°C° 0 mm 0 mps 752 mmHg 75%
    10:00 +3°C° 0 mm 0 mps 753 mmHg 80%
    11:00 +4°C° 0 mm 0 mps 752 mmHg 76%
    12:00 +5°C° 0 mm 0 mps 752 mmHg 73%
    13:00 +6°C° 0 mm 1 mps 751 mmHg 72%
    14:00 +7°C° 0 mm 1 mps 750 mmHg 72%
    15:00 +6°C° 0 mm 2 mps 750 mmHg 74%
    16:00 +6°C° 0 mm 1 mps 749 mmHg 79%
    17:00 +5°C° 0 mm 1 mps 748 mmHg 86%
    18:00 +4°C° 0 mm 1 mps 748 mmHg 90%
    19:00 +4°C° 0 mm 1 mps 747 mmHg 92%
    20:00 +4°C° 0 mm 1 mps 747 mmHg 91%
    21:00 +3°C° 0 mm 0 mps 747 mmHg 89%
    22:00 +4°C° 0 mm 1 mps 746 mmHg 86%
    23:00 +3°C° 0 mm 1 mps 746 mmHg 85%

    Day after tomorrow, 19 November, Monday

    Time Temperature Precipitation Wind Pressure Humidity
    00:00 +3°C° 0 mm 1 mps 746 mmHg 84%
    01:00 +2°C° 0 mm 2 mps 745 mmHg 83%
    02:00 +2°C° 0 mm 2 mps 745 mmHg 81%
    03:00 +3°C° 0 mm 2 mps 745 mmHg 79%
    04:00 +3°C° 0 mm 2 mps 744 mmHg 78%
    05:00 +3°C° 0 mm 2 mps 744 mmHg 80%
    06:00 +3°C° 0 mm 2 mps 744 mmHg 79%
    07:00 +3°C° 0 mm 2 mps 744 mmHg 79%
    08:00 +3°C° 0 mm 2 mps 744 mmHg 79%
    09:00 +3°C° 0 mm 2 mps 744 mmHg 82%
    10:00 +4°C° 0 mm 2 mps 745 mmHg 88%
    11:00 +5°C° 0.1 mm 1 mps 745 mmHg 93%
    12:00 +5°C° 0.1 mm 2 mps 745 mmHg 91%
    13:00 +5°C° 0.2 mm 2 mps 744 mmHg 91%
    14:00 +5°C° 0.2 mm 2 mps 744 mmHg 91%
    15:00 +4°C° 0.1 mm 3 mps 744 mmHg 90%
    16:00 +5°C° 0 mm 2 mps 744 mmHg 90%
    17:00 +6°C° 0 mm 1 mps 744 mmHg 94%
    18:00 +6°C° 0 mm 1 mps 745 mmHg 94%
    19:00 +5°C° 0 mm 2 mps 745 mmHg 91%
    20:00 +4°C° 0 mm 3 mps 745 mmHg 87%
    21:00 +3°C° 0 mm 3 mps 745 mmHg 85%
    22:00 +4°C° 0 mm 2 mps 745 mmHg 84%
    23:00 +3°C° 0 mm 2 mps 746 mmHg 82%

    20 November, Tuesday

    Time Temperature Precipitation Wind Pressure Humidity
    00:00 +3°C° 0 mm 2 mps 746 mmHg 81%
    01:00 +3°C° 0 mm 2 mps 746 mmHg 80%
    02:00 +3°C° 0 mm 2 mps 746 mmHg 80%
    03:00 +3°C° 0 mm 2 mps 746 mmHg 79%
    04:00 +3°C° 0 mm 2 mps 745 mmHg 78%
    05:00 +3°C° 0 mm 2 mps 746 mmHg 78%
    06:00 +2°C° 0 mm 2 mps 745 mmHg 77%
    07:00 +1°C° 0 mm 3 mps 745 mmHg 76%
    08:00 +2°C° 0 mm 3 mps 745 mmHg 76%
    09:00 +3°C° 0 mm 4 mps 745 mmHg 75%
    10:00 +4°C° 0 mm 4 mps 745 mmHg 73%
    11:00 +5°C° 0 mm 5 mps 744 mmHg 71%
    12:00 +6°C° 0 mm 7 mps 744 mmHg 69%
    13:00 +6°C° 0 mm 7 mps 744 mmHg 75%
    14:00 +5°C° 0.1 mm 8 mps 743 mmHg 91%
    15:00 +5°C° 0 mm 8 mps 742 mmHg 88%
    16:00 +5°C° 0 mm 8 mps 742 mmHg 91%
    17:00 +5°C° 0.3 mm 7 mps 742 mmHg 94%
    18:00 +5°C° 0.6 mm 7 mps 741 mmHg 95%
    19:00 +5°C° 0.8 mm 7 mps 741 mmHg 94%
    20:00 +5°C° 0.5 mm 7 mps 740 mmHg 94%
    21:00 +6°C° 1.2 mm 7 mps 740 mmHg 94%
    22:00 +6°C° 1.6 mm 7 mps 740 mmHg 94%
    23:00 +7°C° 1.6 mm 6 mps 740 mmHg 94%

    21 November, Wednesday

    Time Temperature Precipitation Wind Pressure Humidity
    00:00 +7°C° 1.4 mm 6 mps 739 mmHg 94%
    01:00 +7°C° 1.3 mm 6 mps 739 mmHg 96%
    02:00 +7°C° 0.4 mm 5 mps 739 mmHg 96%

    22 November, Thursday

    Time Temperature Precipitation Wind Pressure Humidity
    Show more